カタログに戻る

STARLINK-36655

運用中通信VLEO
NORAD 67834·PAYLOAD·🇺🇸 United States

打ち上げ Feb 16, 2026 から Vandenberg Space Force Base

Loading…

次のパス (今後24時間)

TLE

最新Source: CelesTrak SupGP

元期: Sep 15, 2026, 03:42 UTC

1 67834C 26033P   26258.15465278 -.00017683  00000+0 -64054-3 0  2589
2 67834  42.9995 276.7058 0001433 265.6910 115.7913 15.27584759    14

AllMySatでSTARLINK-36655をリアルタイム追跡

Download on the App Store